Voltar ao catálogo

FENGYUN 1C DEB

AtivoPO
NORAD 31093·DEBRIS·🇨🇳 China

Lançado May 10, 1999 de Taiyuan Satellite Launch Center

Loading…

Próximas Passagens (próximas 24 horas)

TLE

AtualizadoSource: Space-Track

Época: Sep 13, 2026, 11:04 UTC

1 31093U 99025BGP 26256.46178639  .00000329  00000-0  29620-3 0  9992
2 31093  98.5960  75.9341 0208044 198.4930 160.8583 13.80862634982984

Acompanhe FENGYUN 1C DEB em tempo real com AllMySat

Download on the App Store